Location: Marion Hill
(40.7303°N, 80.2959°W)
Time: 08:05:21
(UTC+00:00)

Cosmos 1939 Rocket - Pass Details

Date: 29 October 2020
Orbit: 532 x 584 km, 97.4° (Epoch: 28 November)

Event Time Altitude Azimuth Distance (km) Brightness Sun altitude
Rises 23:16:20 0° 158° (SSE) 2,729 6.2 -11.1°
Reaches altitude 10° 23:18:29 10° 154° (SSE) 1,830 5.3 -11.5°
Maximum altitude 23:22:23 59° 75° (ENE) 637 2.8 -12.3°
Drops below altitude 10° 23:26:14 10° 356° (N) 1,816 5.4 -13.0°
Sets 23:28:22 0° 353° (N) 2,706 6.4 -13.4°
